Location: ?????????
(41.2286°N, 23.0068°E)
Time: 09:24:28
(UTC+00:00)

Cosmos 1140 Rocket - Pass Details

Date: 08 November 2025
Orbit: 740 x 761 km, 74.1° (Epoch: 05 December)

Event Time Altitude Azimuth Distance (km) Brightness Sun altitude
Exits shadow 04:15:49 - 322° (NW) 2,607 5.8 -10.1°
Reaches altitude 10° 04:16:51 10° 316° (NW) 2,261 5.4 -9.9°
Maximum altitude 04:21:03 26° 261° (W) 1,429 4.4 -9.2°
Drops below altitude 10° 04:25:13 10° 206° (SSW) 2,243 5.8 -8.4°
Sets 04:27:52 0° 193° (SSW) 3,161 6.7 -7.9°
